Location: Newark
(22.3000°N, 114.2000°E)
Time: 19:43:32
(UTC+00:00)

Envisat - Visible Passes

Search period start: 22 October 2019 00:00
Search period end: 01 November 2019 00:00
Orbit: 764 x 766 km, 98.1° (Epoch: 22 October)

Date Brightness Start Highest point End Pass type
(mag) Time Alt. Az. Time Alt. Az. Time Alt. Az.
22 Oct 4.2 11:09:39 10° S 11:14:27 43° W 11:19:16 10° NNW visible
22 Oct 6.8 21:54:01 10° E 21:54:20 10° E 21:54:39 10° E visible
23 Oct 2.9 10:32:41 10° SSE 10:37:44 70° ENE 10:42:46 10° N visible
24 Oct 5.4 11:36:08 10° SSW 11:39:59 22° W 11:43:52 10° NW visible
25 Oct 3.6 10:58:12 10° S 11:03:11 59° W 11:08:11 10° NNW visible
26 Oct 3.1 10:21:36 10° SSE 10:26:30 52° ENE 10:31:24 10° N visible
26 Oct 6.3 12:04:40 10° WSW 12:05:36 10° W 12:06:33 10° W visible
27 Oct 5.0 11:24:20 10° SSW 11:28:42 29° W 11:33:05 10° NW visible
28 Oct 3.1 10:46:52 10° S 10:51:55 79° WSW 10:57:00 10° NNW visible
29 Oct 3.4 10:10:36 10° SE 10:15:17 39° ENE 10:19:58 10° N visible
29 Oct 6.0 11:51:32 10° SW 11:54:17 15° W 11:57:03 10° WNW visible
30 Oct 4.4 11:12:43 10° SSW 11:17:25 39° W 11:22:08 10° NNW visible
30 Oct 6.6 21:55:38 10° ENE 21:57:20 12° E 21:59:01 10° ESE visible
31 Oct 2.9 10:35:37 10° SSE 10:40:41 78° ENE 10:45:45 10° N visible
